Torna al catalogo

STARLINK-37548

AttivoComunicazioniSSO
NORAD 69027·PAYLOAD·🇺🇸 United States

Lanciato May 6, 2026 da Vandenberg Space Force Base

Loading…

Prossimi Passaggi (prossime 24 ore)

TLE

AggiornatoSource: CelesTrak SupGP

Epoca: Sep 14, 2026, 15:22 UTC

1 69027C 26101C   26257.64076389 -.00032227  00000+0 -10009-2 0  2575
2 69027  97.2847 111.1889 0002051  88.1778 127.9279 15.33437810    12

Traccia STARLINK-37548 in tempo reale con AllMySat

Download on the App Store